Location: Bernalillo
(35.3000°N, 106.5511°W)
Time: 19:58:04
(UTC+00:00)

Daily predictions for brighter satellites

Satellite Brightness Start Highest point End
(mag) Time Altitude Azimuth Time Altitude Azimuth Time Altitude Azimuth
H-2A R/B 4.5 12:04:14 10° SSW 12:04:15 10° SSW 12:04:15 10° SSW
deb Chang Zheng 4 3.4 12:03:53 10° N 12:08:12 74° WNW 12:12:31 10° SSW
SKYMED 2 4.4 12:04:05 10° SSE 12:08:15 49° ENE 12:12:27 10° N
ATLAS 2AS CENTAUR R/B 3.4 12:06:25 10° SSW 12:14:11 67° ESE 12:22:03 10° NE
USA 234 3.2 12:11:28 10° NE 12:18:00 79° NW 12:24:33 10° SW
Delta 2 Rocket 3.4 12:16:39 41° W 12:18:17 88° S 12:22:33 10° E
USA 276 2.3 12:18:15 52° N 12:18:44 62° NE 12:21:51 10° ESE
ERBS 3.8 12:22:27 22° N 12:22:27 22° N 12:24:08 10° NNE
CENTAUR R/B 3.8 12:13:27 10° NNW 12:21:40 58° NE 12:30:22 10° SE
Cosmos 773 Rocket 3.9 12:18:40 13° NNW 12:23:28 79° WSW 12:28:42 10° SSE
H-2A R/B 4.0 12:21:15 10° NNE 12:25:01 45° E 12:28:44 10° S
CZ-4C R/B 3.5 12:24:58 10° S 12:29:13 36° ESE 12:34:03 10° NE
SL-16 R/B 2.9 12:28:21 26° WNW 12:30:18 32° WSW 12:35:15 10° SSW
NOSS 3-2 (A) 4.1 12:22:45 11° NNW 12:30:20 88° WSW 12:39:02 10° SSE
ADEOS 4.2 12:27:50 10° N 12:32:27 33° WNW 12:37:03 10° SW
Cosmos 1933 3.6 12:28:36 10° N 12:32:42 70° E 12:36:45 10° SSE
SAR-Lupe-4 3.4 12:29:58 10° S 12:33:30 71° WSW 12:36:56 11° NNW
SL-8 R/B 3.8 12:32:32 26° WNW 12:35:05 60° SW 12:39:49 10° SE
Cosmos 1633 2.3 12:31:55 10° SSW 12:35:26 73° W 12:38:57 10° N
ASTRO E2 3.4 12:36:30 19° WSW 12:39:02 47° S 12:42:51 10° ESE
Cosmos 2151 3.8 12:38:22 10° SW 12:41:59 28° WNW 12:45:38 10° NNW
Okean 3 Rocket 3.6 12:37:45 10° SSW 12:42:02 57° W 12:46:22 10° N
YAOGAN 6 4.1 12:39:21 10° NNE 12:42:39 38° E 12:45:55 10° SSE
USA 238 DEB 3.9 12:36:52 10° NNW 12:44:14 82° WSW 12:51:49 10° SSE
USA 238 3.9 12:36:58 10° NNW 12:44:20 83° WSW 12:51:55 10° SSE
ERS-2 3.2 12:41:25 10° SSW 12:44:26 25° W 12:45:29 22° WNW
Cosmos 1151 Rocket 3.1 12:40:29 10° N 12:44:45 76° E 12:49:01 10° S
PSLV R/B 4.1 12:41:37 10° NNE 12:45:30 67° E 12:49:16 10° S
Cosmos 1328 Rocket 3.9 12:42:33 10° N 12:46:57 70° E 12:51:21 10° SSE
Meteor 2-3 Rocket 3.7 12:42:44 10° SSW 12:48:22 68° W 12:54:06 10° N
BREEZE-M DEB (TANK) 2.5 12:47:37 11° WSW 12:50:20 76° NW 12:57:48 10° NE
SL-4 R/B 3.7 12:49:33 15° NW 12:50:22 16° NNW 12:52:44 10° NNE
SAR-Lupe-1 4.4 12:47:18 10° S 12:50:42 42° W 12:54:07 10° NNW
Cosmos 1689 Rocket 2.1 12:48:24 10° S 12:51:12 50° W 12:54:00 10° NNW
CRYOSAT 2 4.4 12:46:28 10° S 12:51:14 58° W 12:56:01 10° NNW
Cosmos 2181 Rocket 4.0 12:45:06 10° N 12:51:21 87° W 12:57:28 10° S
Lacrosse 4 Rocket 3.4 12:47:49 10° N 12:51:32 27° ENE 12:55:18 10° ESE
OAO 3 Rocket 3.3 12:48:33 18° W 12:52:02 69° SSW 12:56:46 10° ESE
Cosmos 1766 Rocket 3.8 12:48:35 10° SSW 12:52:53 46° W 12:57:11 10° N
Cosmos 1782 3.5 12:51:00 10° N 12:54:58 56° E 12:58:55 10° SSE
COSMO-SKYMED 1 3.0 12:52:10 10° S 12:56:17 42° W 13:00:25 10° NNW
Meteor PRIRODA 4.3 12:52:58 10° N 12:56:22 34° WNW 12:59:45 10° SW
Meteor 2-17 Rocket 4.4 12:50:33 10° SSW 12:56:35 75° W 13:02:38 10° N
SJ 16-02 1.4 12:52:27 10° SSW 12:56:46 55° WNW 13:01:07 10° N
CZ-4B R/B 3.1 12:55:43 10° SW 12:57:22 14° W 12:57:22 14° W
Lacrosse 5 1.8 12:53:19 10° SW 12:58:23 81° NW 13:03:29 10° NE
Cosmos 1461 3.9 12:54:53 10° NNW 12:59:27 51° ENE 13:03:49 10° SE
BREEZE M DEB (TANK) 3.4 12:46:47 10° SW 12:59:45 88° NW 13:03:17 10° NE
Cosmos 1606 3.8 12:57:12 10° NW 13:00:17 24° W 13:03:21 10° SW
Meteor 1-31 Rocket 4.4 13:00:18 10° NW 13:02:17 14° WNW 13:04:16 10° W
FALCON 9 DEB 3.6 12:59:39 10° SSW 13:02:47 58° SE 13:05:57 10° NE
Cosmos 389 Rocket 4.1 13:02:33 14° WNW 13:03:27 15° W 13:05:31 10° SW
BREEZE-M DEB (TANK) 4.1 13:02:40 13° NW 13:04:23 21° N 13:07:22 10° NE
Cosmos 1408 Rocket 3.6 13:00:00 10° SSW 13:04:25 66° W 13:08:52 10° N
Cosmos 2263 Rocket 3.0 13:01:33 10° WSW 13:06:21 28° WNW 13:11:12 10° N
Cosmos 1538 Rocket 4.2 13:02:03 10° NNW 13:07:13 52° WSW 13:12:18 10° S
CZ-4B R/B 4.1 13:07:47 10° NNW 13:11:26 25° WNW 13:15:03 10° SW
Cosmos 405 Rocket 3.5 13:15:17 10° S 13:18:51 54° E 13:22:28 10° NNE
CZ-4B R/B 3.7 13:13:56 10° NNE 13:19:14 65° ESE 13:24:37 10° S
GPS 2-04 Rocket1 2.9 13:16:16 10° WSW 13:20:02 64° SSE 13:23:39 10° E
Cosmos 2228 Rocket 4.3 13:20:07 10° N 13:24:23 46° E 13:28:36 10° SSE
Cosmos 1603 4.0 13:19:26 10° NW 13:24:46 46° WSW 13:30:06 10° S
NOAA 12 4.4 13:19:35 10° NNE 13:24:52 74° ESE 13:30:06 10° S
Cosmos 2074 Rocket 4.1 13:22:15 10° SSW 13:28:20 59° W 13:34:28 10° N
